Monroe, MI

9:34 AM EDT on August 16, 2017 (GMT -0400)
Custer

Weather History for KTTF - December, 2012

Change the Weather History Date:

Wednesday, December 26, 2012

  Actual Average Record
Temperature  
Mean Temperature 30 °F -  
Max Temperature 33 °F 30 °F 63 °F (1982)
Min Temperature 26 °F 17 °F -8 °F (1983)
Degree Days  
Heating Degree Days 36    
Moisture  
Dew Point 26 °F    
Average Humidity 85    
Maximum Humidity 100    
Minimum Humidity 70    
Precipitation  
Precipitation 0.00 in - - ()
Sea Level Pressure  
Sea Level Pressure 29.93 in    
Wind  
Wind Speed 13 mph (NNE)    
Max Wind Speed 24 mph    
Max Gust Speed 34 mph    
Visibility 6 miles    
Events Snow    
Averages and records for this station are not official NWS values.
T = Trace of Precipitation, MM = Missing Value Source: NWS Daily Summary

Daily Weather History Graph

Daily Weather History Graph

Search for Another Location

Airport or City:

Trip Planner

Search our weather history database for the weather conditions in past years. The results will help you decide how hot, cold, wet, or windy it might be!

Date:

Astronomy

Dec. 26, 2012 Rise Set
Actual Time 8:00 AM EST 5:08 PM EST
Civil Twilight 7:28 AM EST 5:40 PM EST
Nautical Twilight 6:53 AM EST 6:15 PM EST
Astronomical Twilight 6:19 AM EST 6:49 PM EST
Moon 4:01 PM EST (12/26) 6:22 AM EST (12/26)
Length of Visible Light 10h 11m
Length of Day
9h 08m
Waxing Gibbous, 97% of the Moon is Illuminated
Dec 26
Waxing Gibbous
Dec 28
Full
Jan 4
Last Quarter
Jan 11
New
Jan 18
First Quarter

Hourly Weather History & Observations

Time (EST) Temp. Windchill Dew Point Humidity Pressure Visibility Wind Dir Wind Speed Gust Speed Precip Events Conditions
12:14 AM 32.0 °F 25.6 °F 26.6 °F 80% 30.23 in 10.0 mi NE 6.9 mph - N/A   Overcast
12:35 AM 32.0 °F 24.2 °F 26.6 °F 80% 30.21 in 10.0 mi NE 9.2 mph - N/A   Overcast
12:55 AM 32.0 °F 23.6 °F 28.4 °F 87% 30.20 in 10.0 mi NE 10.4 mph 17.3 mph N/A   Overcast
1:15 AM 32.0 °F 22.5 °F 28.4 °F 87% 30.20 in 10.0 mi NE 12.7 mph - N/A   Overcast
1:35 AM 33.8 °F 25.8 °F 26.6 °F 75% 30.18 in 10.0 mi NE 10.4 mph 18.4 mph N/A   Overcast
2:15 AM 33.8 °F 24.8 °F 24.8 °F 70% 30.17 in 10.0 mi NE 12.7 mph 19.6 mph N/A   Overcast
2:35 AM 33.8 °F 24.8 °F 24.8 °F 70% 30.18 in 10.0 mi NE 12.7 mph 17.3 mph N/A   Overcast
2:55 AM 32.0 °F 23.6 °F 24.8 °F 75% 30.16 in 10.0 mi NE 10.4 mph 19.6 mph N/A   Overcast
3:15 AM 32.0 °F 23.6 °F 24.8 °F 75% 30.15 in 10.0 mi NE 10.4 mph 21.9 mph N/A   Overcast
3:36 AM 32.0 °F 22.5 °F 24.8 °F 75% 30.13 in 10.0 mi NE 12.7 mph 19.6 mph N/A   Overcast
3:56 AM 32.0 °F 21.6 °F 24.8 °F 75% 30.11 in 10.0 mi NE 15.0 mph 23.0 mph N/A   Overcast
4:16 AM 32.0 °F 21.2 °F 24.8 °F 75% 30.09 in 10.0 mi NE 16.1 mph 24.2 mph N/A   Overcast
4:31 AM 32.0 °F 20.5 °F 24.8 °F 75% 30.07 in 10.0 mi NE 18.4 mph 24.2 mph N/A   Overcast
4:51 AM 32.0 °F 21.2 °F 24.8 °F 75% 30.07 in 10.0 mi NE 16.1 mph 23.0 mph N/A   Overcast
5:11 AM 32.0 °F 21.2 °F 24.8 °F 75% 30.07 in 10.0 mi ENE 16.1 mph 21.9 mph N/A   Overcast
5:31 AM 32.0 °F 22.5 °F 24.8 °F 75% 30.06 in 10.0 mi NE 12.7 mph 24.2 mph N/A   Overcast
5:51 AM 32.0 °F 22.1 °F 24.8 °F 75% 30.05 in 10.0 mi NE 13.8 mph 23.0 mph N/A   Overcast
6:11 AM 32.0 °F 20.5 °F 24.8 °F 75% 30.04 in 10.0 mi NE 18.4 mph 23.0 mph N/A   Overcast
6:31 AM 32.0 °F 21.6 °F 24.8 °F 75% 30.04 in 10.0 mi NE 15.0 mph 21.9 mph N/A   Overcast
6:51 AM 32.0 °F 21.6 °F 24.8 °F 75% 30.02 in 10.0 mi NE 15.0 mph 23.0 mph N/A   Overcast
7:12 AM 32.0 °F 22.1 °F 24.8 °F 75% 30.00 in 10.0 mi NE 13.8 mph 24.2 mph N/A   Overcast
7:32 AM 32.0 °F 21.6 °F 24.8 °F 75% 30.02 in 10.0 mi NE 15.0 mph 24.2 mph N/A   Overcast
7:52 AM 32.0 °F 22.1 °F 24.8 °F 75% 30.01 in 10.0 mi NE 13.8 mph 20.7 mph N/A   Overcast
8:12 AM 32.0 °F 22.5 °F 26.6 °F 80% 30.01 in 10.0 mi NE 12.7 mph 25.3 mph N/A   Overcast
8:32 AM 32.0 °F 21.6 °F 26.6 °F 80% 29.99 in 10.0 mi NE 15.0 mph 25.3 mph N/A   Overcast
8:52 AM 32.0 °F 21.6 °F 26.6 °F 80% 29.97 in 10.0 mi NE 15.0 mph 24.2 mph N/A   Overcast
9:12 AM 32.0 °F 20.8 °F 26.6 °F 80% 29.96 in 10.0 mi NE 17.3 mph 27.6 mph N/A   Overcast
9:32 AM 32.0 °F 21.2 °F 26.6 °F 80% 29.94 in 10.0 mi NE 16.1 mph 25.3 mph N/A   Overcast
9:52 AM 32.0 °F 21.6 °F 26.6 °F 80% 29.93 in 10.0 mi NE 15.0 mph 28.8 mph N/A   Overcast
10:12 AM 32.0 °F 20.5 °F 26.6 °F 80% 29.91 in 10.0 mi NE 18.4 mph 28.8 mph N/A   Overcast
10:33 AM 32.0 °F 19.2 °F 26.6 °F 80% 29.89 in 10.0 mi NE 23.0 mph 32.2 mph N/A   Overcast
10:53 AM 32.0 °F 19.8 °F 26.6 °F 80% 29.90 in 7.0 mi NE 20.7 mph 33.4 mph N/A   Overcast
11:13 AM 32.0 °F 21.6 °F 26.6 °F 80% 29.89 in 10.0 mi NE 15.0 mph 34.5 mph N/A Snow Light Snow
11:33 AM 32.0 °F 21.6 °F 26.6 °F 80% 29.87 in 10.0 mi NE 15.0 mph 27.6 mph N/A   Overcast
11:53 AM 32.0 °F 18.9 °F 26.6 °F 80% 29.86 in 10.0 mi NE 24.2 mph 31.1 mph N/A   Overcast
12:13 PM 32.0 °F 20.5 °F 26.6 °F 80% 29.86 in 5.0 mi NE 18.4 mph 25.3 mph N/A Snow Light Snow
12:33 PM 30.2 °F 19.3 °F 28.4 °F 93% 29.85 in 1.0 mi NE 15.0 mph 29.9 mph N/A Snow Light Snow
12:53 PM 30.2 °F 18.9 °F 28.4 °F 93% 29.83 in 0.5 mi NE 16.1 mph 31.1 mph N/A Snow Light Snow
1:13 PM 30.2 °F 19.8 °F 28.4 °F 93% 29.82 in 0.5 mi NE 13.8 mph 24.2 mph N/A Snow Light Snow
1:33 PM 30.2 °F 18.9 °F 28.4 °F 93% 29.82 in 1.0 mi NE 16.1 mph 25.3 mph N/A Snow Light Snow
1:54 PM 30.2 °F 20.2 °F 28.4 °F 93% 29.82 in 0.5 mi NNE 12.7 mph 19.6 mph N/A Snow Light Snow
2:14 PM 30.2 °F 20.8 °F 28.4 °F 93% 29.81 in 0.5 mi NE 11.5 mph 24.2 mph N/A Snow Light Snow
2:54 PM 30.2 °F 20.8 °F 28.4 °F 93% 29.79 in 0.8 mi NNE 11.5 mph 20.7 mph N/A Snow Light Snow
3:14 PM 30.2 °F 20.2 °F 28.4 °F 93% 29.78 in 0.8 mi North 12.7 mph 17.3 mph N/A Snow Light Snow
3:34 PM 28.4 °F 18.0 °F 26.6 °F 93% 29.78 in 0.8 mi NNE 12.7 mph 23.0 mph N/A Snow Light Snow
3:54 PM 28.4 °F 17.5 °F 26.6 °F 93% 29.79 in 0.8 mi NNE 13.8 mph 21.9 mph N/A Snow Light Snow
4:14 PM 28.4 °F 17.5 °F 26.6 °F 93% 29.79 in 1.5 mi NNE 13.8 mph 23.0 mph N/A Snow Light Snow
4:34 PM 28.4 °F 18.5 °F 26.6 °F 93% 29.79 in 1.2 mi NNE 11.5 mph 20.7 mph N/A Snow Light Snow
4:54 PM 28.4 °F 18.5 °F 26.6 °F 93% 29.79 in 1.5 mi NNE 11.5 mph 19.6 mph N/A Snow Light Snow
5:15 PM 28.4 °F 17.0 °F 26.6 °F 93% 29.79 in 2.5 mi NNE 15.0 mph 23.0 mph N/A Snow Light Snow
5:35 PM 28.4 °F 18.0 °F 26.6 °F 93% 29.79 in 5.0 mi NNE 12.7 mph 18.4 mph N/A Snow Light Snow
5:55 PM 28.4 °F 17.0 °F 24.8 °F 86% 29.80 in 4.0 mi NNE 15.0 mph 21.9 mph N/A Snow Light Snow
6:15 PM 28.4 °F 18.0 °F 24.8 °F 86% 29.80 in 2.0 mi North 12.7 mph 20.7 mph N/A Snow Light Snow
6:35 PM 28.4 °F 18.5 °F 26.6 °F 93% 29.81 in 2.0 mi NNE 11.5 mph 19.6 mph N/A Snow Light Snow
6:55 PM 28.4 °F 17.0 °F 26.6 °F 93% 29.81 in 2.0 mi NNE 15.0 mph 24.2 mph N/A Snow Light Snow
7:15 PM 28.4 °F 17.5 °F 26.6 °F 93% 29.82 in 4.0 mi North 13.8 mph 20.7 mph N/A Snow Light Snow
7:35 PM 28.4 °F 16.6 °F 26.6 °F 93% 29.82 in 3.0 mi North 16.1 mph 23.0 mph N/A Snow Light Snow
7:55 PM 28.4 °F 16.6 °F 26.6 °F 93% 29.82 in 4.0 mi North 16.1 mph 23.0 mph N/A Snow Light Snow
8:16 PM 26.6 °F 14.7 °F 24.8 °F 93% 29.82 in 3.0 mi North 15.0 mph 20.7 mph N/A Snow Light Snow
8:36 PM 26.6 °F 14.3 °F 24.8 °F 93% 29.82 in 5.0 mi North 16.1 mph 21.9 mph N/A Snow Light Snow
8:51 PM 26.6 °F 14.7 °F 24.8 °F 93% 29.82 in 7.0 mi North 15.0 mph 21.9 mph N/A   Overcast
9:11 PM 26.6 °F 14.7 °F 24.8 °F 93% 29.82 in 5.0 mi North 15.0 mph - N/A Snow Light Snow
9:31 PM 26.6 °F 14.3 °F 26.6 °F 100% 29.82 in 7.0 mi North 16.1 mph - N/A   Overcast
9:51 PM 28.4 °F 16.6 °F 26.6 °F 93% 29.82 in 5.0 mi North 16.1 mph 21.9 mph N/A   Overcast
10:11 PM 28.4 °F 17.0 °F 26.6 °F 93% 29.82 in 7.0 mi North 15.0 mph - N/A   Overcast
10:31 PM 28.4 °F 17.5 °F 24.8 °F 86% 29.82 in 10.0 mi North 13.8 mph - N/A   Overcast
10:51 PM 28.4 °F 18.5 °F 24.8 °F 86% 29.83 in 7.0 mi North 11.5 mph 17.3 mph N/A Snow Light Snow
11:11 PM 28.4 °F 18.0 °F 26.6 °F 93% 29.83 in 2.5 mi North 12.7 mph - N/A Snow Light Snow
11:32 PM 28.4 °F 19.1 °F 26.6 °F 93% 29.83 in 2.5 mi North 10.4 mph - N/A Snow Light Snow
11:52 PM 28.4 °F 19.7 °F 26.6 °F 93% 29.83 in 3.0 mi NNW 9.2 mph - N/A Snow Light Snow